GFSGL_con_mucape_000.txt.gz
CAPE
0 0 0 0 0 7 34 69 106 30 46 58 31 13 63 292 277 925 796 327 288 124 206 40 38 36 27 24 12 14 33 8 3 0 0 0 0 0 0 0 0 0 0
0 0 0 0 0 0 16 58 123 250 133 65 42 28 3 6 43 429 644 500 497 352 348 261 2 63 116 106 19 60 19 4 0 0 0 0 0 0 0 15 7 8 0
0 0 0 0 0 0 6 14 20 75 165 266 72 39 22 32 39 108 374 463 546 523 479 419 351 278 199 128 59 0 0 0 0 0 0 0 0 0 2 0 0 0 0
0 0 0 0 0 0 2 0 14 0 24 68 99 114 147 28 0 102 515 608 504 423 346 283 273 214 164 190 11 1 0 0 0 0 0 0 0 0 0 0 0 0 0
0 0 0 0 0 0 0 0 0 0 0 0 0 0 0 0 0 7 2 14 38 25 37 32 44 21 4 5 0 0 0 0 0 0 0 0 0 0 0 0 0 0 0
0 0 0 0 0 0 0 0 0 0 0 0 0 0 0 0 0 0 0 0 0 0 0 0 0 0 0 0 0 0 0 0 0 0 0 0 0 0 0 0 0 0 0
0 0 0 0 0 0 0 0 0 0 0 0 0 0 0 0 0 0 0 5 0 0 0 0 0 0 0 0 0 0 0 0 0 6 8 0 0 0 0 0 0 0 0
0 0 0 0 0 0 0 0 0 15 6 0 0 0 0 0 0 0 0 0 0 0 0 0 0 0 0 0 0 0 0 0 0 0 3 12 3 0 0 0 0 0 0
0 0 0 0 0 0 0 0 0 1 7 0 0 0 0 0 0 0 0 0 0 0 0 0 0 0 0 0 0 0 0 0 0 0 0 0 0 0 0 0 0 0 0
0 0 0 0 0 0 0 0 0 0 0 0 0 0 0 0 0 0 0 0 0 0 0 0 0 0 0 0 0 0 0 0 0 0 0 0 0 0 0 0 1 10 9
0 0 0 0 0 0 0 0 0 0 0 0 0 0 0 0 0 0 0 0 0 0 0 0 0 0 0 0 0 0 0 0 0 0 0 0 1 3 5 20 27 1 0
0 0 0 0 0 0 0 0 0 0 0 0 0 0 0 0 0 0 0 0 0 0 0 0 0 0 0 0 0 0 0 0 0 0 0 0 0 4 8 10 1 0 0
0 0 0 0 0 0 0 0 0 0 0 0 0 0 0 0 0 0 0 0 0 0 0 0 0 0 0 0 2 0 0 0 2 8 11 20 17 1 0 0 0 2 3
0 0 0 3 0 0 0 0 0 0 0 0 0 0 0 0 0 0 0 0 0 0 0 0 0 0 0 0 0 0 0 0 1 0 8 13 3 0 0 24 28 15 27
10 0 8 1 0 0 0 0 0 12 0 0 0 0 0 0 0 0 0 0 0 0 0 0 0 0 0 0 1 3 2 6 0 1 4 19 19 35 67 27 1 1 0
333 24 8 0 0 0 0 0 0 0 0 0 0 0 0 0 0 0 0 0 0 0 0 0 0 0 1 0 0 0 0 6 25 35 16 13 11 5 1 0 0 0 0
507 219 0 0 0 0 0 0 0 0 0 0 0 0 0 0 0 0 0 0 0 0 0 0 0 0 0 0 0 12 37 35 23 18 16 23 15 5 0 0 0 0 0
551 1 9 1 0 0 0 0 0 0 0 0 0 0 0 0 0 0 0 0 0 0 7 2 3 15 53 58 45 38 37 50 41 40 57 9 0 0 0 0 0 0 0
199 27 64 3 0 0 0 0 0 0 0 0 0 0 0 0 0 0 0 0 1 1 3 6 31 43 41 21 23 18 9 7 2 17 2 0 0 0 0 0 0 0 0
117 2 11 0 0 0 0 0 0 0 0 0 31 17 0 0 0 0 0 7 7 0 17 29 40 33 20 19 13 4 1 2 0 0 0 0 0 0 0 0 0 0 0
70 52 11 32 8 22 22 21 0 0 0 0 0 0 0 0 0 0 0 2 10 30 32 12 13 11 4 6 14 0 0 0 0 0 0 0 0 0 0 0 0 3 11
88 63 33 2 0 1 14 10 1 11 0 23 0 0 0 0 0 0 0 0 8 9 7 30 23 21 1 8 0 0 0 0 0 0 0 0 0 0 0 4 8 6 13
22 34 44 31 20 11 8 20 19 34 70 2 0 0 0 0 0 0 0 0 5 9 10 9 2 0 0 0 0 0 0 0 0 0 0 0 0 0 0 0 0 0 0
85 29 21 5 4 28 27 20 50 42 45 0 0 0 0 0 0 0 0 0 0 0 0 1 0 0 0 0 0 0 0 0 0 0 0 0 0 0 0 0 0 0 0
18 89 92 24 38 41 25 79 55 40 23 1 0 0 0 0 0 0 0 0 2 1 0 0 0 0 0 0 0 0 0 0 0 0 0 0 0 0 0 0 0 0 0
134 102 66 50 24 23 36 46 59 48 39 12 0 0 0 0 2 25 22 5 0 0 0 0 0 0 0 0 0 0 0 0 0 0 0 0 0 0 0 0 0 0 0

GFSGL_con_mucape_003.txt.gz
CAPE
0 0 0 8 86 98 278 427 112 282 104 480 460 472 570 700 855 1310 1352 933 453 202 84 27 20 21 35 44 41 34 32 55 49 41 36 101 197 105 0 2 0 0 0
0 0 0 4 15 146 329 685 412 565 62 64 307 389 387 515 874 940 731 722 313 162 20 52 44 43 7 21 33 102 266 146 7 33 35 6 0 21 0 34 7 0 0
0 0 0 4 6 73 198 118 628 664 232 89 106 88 390 560 637 878 738 615 654 515 149 30 112 5 3 17 49 38 240 213 146 3 0 5 1 3 2 23 33 129 1
0 0 0 0 4 70 1 0 220 379 727 409 165 146 77 181 645 721 758 928 780 375 213 309 256 85 215 431 288 31 152 183 235 17 4 6 2 3 8 1 0 0 0
0 0 0 0 0 108 7 1 1 4 50 176 321 223 62 38 351 681 748 1073 848 705 591 324 509 163 163 212 7 78 126 49 2 12 3 3 0 0 0 2 4 6 0
0 0 0 0 0 7 11 5 0 0 0 0 0 0 10 0 0 0 174 377 339 281 76 37 12 0 0 0 0 0 0 551 235 8 0 6 293 48 5 0 0 0 0
0 0 0 0 0 0 1 0 0 1 1 0 0 0 0 0 0 0 0 230 266 424 285 68 0 0 0 0 0 0 0 0 0 133 286 180 354 426 393 541 326 153 38
0 0 0 0 0 0 0 0 36 10 11 0 0 0 0 0 0 0 0 469 487 246 58 27 44 0 0 0 0 0 0 0 0 0 12 178 268 570 583 539 743 523 233
0 0 0 0 0 0 0 14 172 235 261 0 0 0 0 0 0 0 0 0 0 0 0 0 0 0 0 0 0 0 0 0 0 0 0 0 0 0 0 2 0 0 0
0 0 0 0 0 0 3 129 216 81 34 0 0 0 0 0 0 0 0 0 0 0 0 0 0 0 0 0 0 0 0 0 0 0 0 0 0 0 0 0 0 0 4
0 0 0 0 0 1 296 444 191 24 43 35 0 0 0 0 0 0 0 0 0 0 0 0 0 0 0 0 0 0 0 0 0 0 0 0 0 0 0 4 16 9 9
0 0 0 0 0 0 304 229 9 175 144 13 0 0 0 0 0 0 0 0 0 0 0 0 0 0 0 0 0 0 0 0 0 0 0 0 0 0 0 0 0 0 1
0 0 0 0 0 2 126 254 3 107 0 0 0 0 0 0 0 0 0 0 0 0 0 0 0 0 0 0 0 0 0 0 0 0 2 0 0 0 0 0 4 12 40
0 18 42 50 0 5 2 7 0 0 0 0 0 0 0 0 0 0 0 0 0 0 0 0 0 0 0 0 0 0 0 0 0 0 0 0 0 4 26 10 14 36 13
277 94 198 18 24 70 33 0 0 22 0 0 0 0 0 0 0 0 0 0 0 0 0 0 0 0 0 0 0 0 0 0 0 14 3 6 7 15 18 4 3 4 0
560 129 9 1 7 0 0 0 0 0 0 0 0 0 0 0 0 0 0 0 0 0 0 0 0 0 0 0 0 2 9 0 4 12 13 29 31 15 42 42 1 0 0
693 378 8 0 1 0 0 0 0 0 0 0 0 0 0 0 0 0 0 0 0 0 0 0 0 0 0 2 31 86 23 9 38 22 21 10 15 16 0 0 0 0 0
940 16 130 66 2 0 0 0 0 0 0 0 0 0 0 0 0 0 0 0 0 0 0 0 6 2 26 53 28 32 55 39 9 3 1 0 0 0 0 0 0 0 0
1079 321 200 149 27 0 2 0 0 0 0 0 0 0 0 0 0 0 0 0 0 0 0 0 10 46 17 19 35 49 28 11 3 4 0 0 0 0 0 0 0 0 0
957 439 219 231 130 38 18 1 0 0 0 0 0 0 0 0 0 0 0 0 0 13 0 14 7 13 8 30 34 15 7 25 1 0 0 0 0 0 0 0 0 0 0
511 617 153 129 155 85 52 38 8 2 0 0 0 0 0 0 0 0 0 0 20 6 0 0 1 25 21 15 16 6 0 0 0 0 0 0 0 0 0 0 0 0 0
577 533 540 371 407 225 186 109 113 10 5 0 0 0 4 0 0 0 6 0 0 0 0 0 4 10 8 12 5 2 0 3 0 0 0 0 0 0 0 0 0 0 0
533 504 521 587 547 238 130 117 132 103 28 18 0 0 0 30 0 0 0 0 0 0 0 0 0 8 11 5 0 0 0 0 0 0 0 0 0 0 0 2 0 0 0
545 496 415 375 341 237 246 271 40 2 40 29 0 24 1 0 0 0 0 0 0 0 0 0 5 0 0 0 0 0 0 0 0 0 0 0 0 0 0 0 0 0 0
549 538 498 422 249 155 271 142 254 44 16 0 0 2 0 0 0 0 0 0 0 0 3 10 0 0 0 0 0 0 0 0 0 0 0 0 0 0 0 0 0 0 0
345 339 372 340 232 116 148 163 144 23 20 4 9 10 12 7 0 0 0 0 0 8 6 0 0 0 0 0 0 0 0 0 0 0 0 0 0 0 0 0 0 0 0

GFSGL_con_mucape_006.txt.gz
CAPE
93 246 376 940 689 556 510 434 29 125 398 327 226 629 581 626 412 776 522 401 280 150 13 0 0 0 5 8 17 29 37 43 12 57 41 78 87 65 0 0 0 0 0
20 99 178 870 687 759 582 581 66 119 356 479 568 466 479 731 856 514 375 206 143 71 11 0 5 0 0 14 30 32 33 48 41 28 10 27 4 1 0 0 0 0 0
0 1 101 778 597 950 599 471 86 34 170 453 459 542 538 574 475 321 531 296 130 53 24 15 1 1 20 34 38 16 43 98 22 5 0 0 0 0 0 0 3 13 0
0 7 86 820 607 684 563 640 431 271 119 117 286 403 313 310 466 634 492 243 163 64 22 24 33 4 16 19 9 21 63 62 2 0 0 0 0 0 0 0 0 0 0
0 8 99 522 920 622 439 514 378 395 430 281 435 271 229 447 468 331 426 215 175 62 32 27 18 9 17 33 32 29 34 43 20 0 0 0 0 1 0 0 0 0 0
0 0 1 6 258 679 650 307 201 199 333 196 7 5 60 167 305 403 383 267 124 127 101 49 6 16 28 38 16 35 25 0 0 0 0 0 0 0 0 0 0 0 0
0 0 0 0 11 313 191 156 154 441 646 34 0 0 0 0 2 64 138 73 57 66 63 64 61 47 2 0 0 0 0 0 65 266 7 39 26 0 0 5 0 0 19
0 0 0 0 0 15 46 224 361 383 450 259 0 0 0 0 0 0 128 241 271 91 70 0 2 0 0 0 0 0 0 0 0 0 120 114 26 19 252 201 231 253 135
0 0 0 0 0 0 66 314 536 715 470 287 44 0 0 0 0 0 36 57 157 6 0 0 9 0 0 0 0 0 0 0 0 0 0 0 0 0 0 0 0 0 0
0 0 0 0 0 2 282 528 630 856 605 79 100 62 0 0 0 0 0 0 0 0 0 0 0 0 0 0 0 0 0 0 0 0 0 0 0 0 0 0 0 0 0
0 0 0 0 0 90 621 514 687 568 304 462 154 193 25 0 0 0 0 0 0 0 0 0 0 0 0 0 0 0 0 0 0 0 0 0 0 0 0 0 0 0 7
0 0 0 0 0 66 456 374 384 360 807 288 399 103 71 0 0 0 0 0 0 0 0 0 0 0 0 0 0 0 0 0 0 0 0 0 0 0 0 0 0 0 0
0 0 0 0 0 72 253 271 169 288 157 0 41 0 0 0 0 0 0 0 0 0 0 0 0 0 0 0 0 0 0 0 0 0 0 0 0 0 0 2 0 7 24
7 56 29 0 0 33 81 166 10 8 0 0 0 0 0 0 0 0 0 0 0 0 0 0 0 0 0 0 0 0 0 0 0 0 0 0 1 4 23 43 23 26 26
93 62 78 1 0 49 36 102 21 19 0 0 0 0 0 0 0 0 0 0 0 0 0 0 0 0 0 0 0 0 0 0 0 4 11 16 35 34 24 26 17 18 2
203 100 50 6 0 8 3 22 1 0 0 0 0 0 0 0 0 0 0 0 0 0 0 0 0 0 0 0 0 0 0 0 18 24 28 53 35 15 20 6 0 0 0
352 126 0 0 0 0 0 0 0 0 0 0 0 0 0 0 0 0 0 0 0 0 0 0 0 0 0 6 0 0 0 18 36 40 27 23 17 22 3 0 0 0 0
507 82 31 0 61 0 0 0 0 0 0 0 0 0 0 0 0 0 0 0 0 0 0 0 0 10 10 0 0 37 69 77 54 44 22 8 0 0 0 0 0 0 0
332 192 79 20 0 4 0 0 0 0 0 0 0 0 0 0 0 0 0 0 0 0 0 0 0 0 0 1 27 44 57 30 54 48 28 10 0 0 0 0 0 0 0
488 183 77 81 4 5 0 0 0 0 0 0 0 0 0 0 0 0 0 0 0 0 0 0 0 0 5 32 56 63 42 57 22 18 0 0 0 0 0 0 0 0 0
639 351 96 78 65 19 10 0 0 0 0 0 0 0 0 0 0 0 0 0 0 0 0 0 1 0 24 37 23 47 62 30 22 1 0 0 0 0 0 0 0 0 0
823 716 242 216 164 26 65 26 54 1 0 0 0 0 0 0 0 0 0 0 0 0 0 0 0 0 0 0 15 11 17 20 0 0 0 0 0 0 0 0 0 0 0
737 891 689 392 335 212 19 5 2 93 38 0 0 0 0 0 0 0 0 0 0 4 10 4 2 0 0 0 2 0 2 0 0 0 0 0 0 0 0 0 0 0 0
834 840 877 886 500 401 397 140 186 65 155 0 0 0 0 0 0 0 0 22 29 11 1 1 0 0 0 5 5 2 0 0 0 0 0 0 0 0 0 0 0 0 0
533 1228 1110 1240 716 458 458 386 797 155 11 0 2 0 0 0 1 0 0 0 3 0 1 0 0 0 7 13 3 1 0 0 0 0 0 0 0 0 0 0 0 0 0
723 634 837 1041 1002 681 706 622 502 528 45 18 4 0 0 0 1 14 0 0 0 3 5 0 0 3 7 1 0 0 0 0 0 0 0 0 0 0 0 0 0 0 0

GFSGL_con_mucape_009.txt.gz
CAPE
0 0 77 129 119 124 65 0 67 107 108 183 278 370 376 476 335 214 145 151 78 4 96 157 92 36 30 48 81 20 28 5 5 36 47 63 81 45 48 29 6 0 0
0 0 32 75 100 85 131 4 55 126 183 203 245 318 290 291 242 213 161 67 34 37 6 200 43 40 74 31 16 9 9 19 46 48 65 75 70 47 3 0 0 0 0
0 0 38 0 123 121 76 5 20 123 230 273 266 322 335 310 149 146 114 70 5 7 12 26 17 27 21 27 9 18 7 38 36 52 65 53 34 43 0 0 0 0 0
0 0 17 0 14 113 80 65 15 53 109 139 244 215 283 281 170 148 136 63 10 2 22 14 5 17 32 20 22 15 26 28 24 8 21 26 3 0 0 0 0 0 0
0 0 26 0 0 11 135 57 54 63 66 68 137 172 196 211 270 165 88 48 21 23 36 22 29 43 36 28 32 29 27 22 8 1 0 0 0 0 0 0 0 0 0
0 0 0 4 75 19 63 18 1 89 129 36 33 101 140 142 122 119 95 60 18 33 24 6 18 50 37 22 17 13 15 23 1 0 0 0 0 0 0 0 0 0 0
0 0 0 0 40 0 0 0 27 42 0 5 13 63 137 157 127 117 62 39 45 31 11 17 5 9 17 17 12 16 19 12 0 0 0 0 0 0 0 0 0 0 0
0 0 0 0 2 0 0 0 0 0 0 0 0 0 41 126 144 119 35 16 26 40 4 28 33 8 6 4 2 0 0 0 2 0 0 0 0 4 4 8 32 16 18
0 0 0 0 0 0 0 0 0 0 0 0 0 0 0 0 19 0 0 11 34 20 7 15 0 0 0 0 0 0 0 0 0 0 4 9 4 7 5 8 6 0 0
0 0 0 0 0 0 0 0 0 0 0 0 0 0 0 0 0 0 0 0 0 0 0 0 0 0 0 0 0 0 0 0 0 0 0 0 0 0 0 0 0 0 0
0 0 0 0 0 0 0 5 0 23 0 0 0 0 0 0 0 0 0 0 0 0 0 0 0 0 0 0 0 0 0 0 0 0 0 0 0 0 0 0 0 0 0
0 0 0 0 0 0 44 92 13 70 2 0 0 0 0 0 0 0 0 0 0 0 0 0 0 0 0 0 0 0 0 0 0 0 0 0 0 0 0 0 0 0 4
0 0 0 0 0 0 10 64 37 12 119 0 0 0 0 0 0 0 0 0 0 0 0 0 0 0 0 0 0 0 0 0 0 0 0 0 0 2 7 9 1 13 16
0 0 0 0 0 0 1 14 12 0 0 25 5 0 0 0 0 0 0 0 0 0 0 0 0 0 0 0 0 0 0 0 0 0 0 1 11 22 15 23 1 0 10
0 0 0 0 0 0 0 1 0 0 0 3 0 0 0 0 0 0 0 0 0 0 0 0 0 0 0 0 0 0 0 0 0 0 5 14 19 16 32 19 20 11 0
0 0 0 0 0 0 0 0 0 0 0 0 0 0 0 0 0 0 0 0 0 0 0 0 0 0 0 0 0 0 0 0 0 21 24 22 22 14 12 10 0 0 0
0 0 0 0 0 0 0 0 0 0 0 0 0 0 0 0 0 0 0 0 0 0 0 0 0 0 0 0 0 0 0 0 6 27 26 46 52 30 10 0 0 0 0
0 0 0 0 0 0 0 0 0 0 0 0 0 0 0 0 0 0 0 0 0 0 0 0 0 0 0 0 0 0 3 7 11 19 31 37 32 19 0 0 0 0 0
0 0 0 0 0 0 0 0 0 0 0 0 0 0 0 0 0 0 0 0 0 0 0 0 0 0 0 0 0 4 7 14 33 67 57 37 44 5 0 0 0 0 0
239 2 0 0 0 0 0 0 0 0 0 0 0 0 0 0 0 0 0 0 0 0 0 0 0 0 0 0 0 7 25 42 55 66 81 56 26 0 0 0 0 0 0
347 163 47 7 0 0 0 0 0 0 0 0 0 0 0 0 0 0 0 0 0 0 0 0 0 0 0 0 0 5 16 42 72 70 67 26 0 0 0 0 0 0 0
379 357 277 180 112 56 22 30 19 0 0 0 0 0 0 0 0 0 0 0 0 0 0 0 0 0 0 0 0 4 35 54 48 59 9 0 0 0 0 0 0 0 0
375 420 393 360 321 225 162 152 19 24 6 0 0 2 0 0 0 0 0 0 0 0 0 0 0 0 0 7 13 23 40 53 42 1 0 0 0 0 0 0 0 0 0
412 473 535 501 421 357 305 206 67 15 0 0 0 0 3 0 0 0 0 0 0 0 0 1 0 3 0 10 17 31 78 49 7 0 0 0 0 0 0 0 0 0 0
542 414 451 512 542 494 430 391 307 154 38 6 5 0 0 0 0 0 0 0 0 0 0 0 0 0 20 66 81 62 30 4 0 0 0 0 0 0 0 0 0 0 0
332 404 416 448 576 582 567 443 354 267 245 150 30 67 22 14 4 0 0 0 0 0 0 4 0 15 25 10 4 6 1 0 0 0 0 0 0 0 0 0 0 0 0

GFSGL_con_mucape_015.txt.gz
CAPE
0 0 0 0 2 0 0 0 26 41 62 54 47 22 82 110 94 105 191 140 460 62 54 57 78 80 48 14 31 51 34 31 0 49 25 48 56 23 71 50 21 32 45
0 0 2 0 0 0 0 3 6 43 49 60 98 92 92 99 67 80 85 112 94 53 47 53 55 36 3 6 31 32 35 22 30 40 61 45 11 37 44 28 38 35 19
0 0 0 0 0 1 0 18 42 52 65 88 91 101 88 62 71 60 90 119 173 118 194 143 121 67 105 33 32 17 12 28 32 44 39 17 35 21 15 39 36 12 0
0 0 0 0 0 0 0 13 46 52 45 62 65 67 55 38 44 23 24 64 93 90 142 198 20 24 48 48 44 26 31 53 42 33 33 32 17 20 37 31 7 0 0
0 0 0 0 0 0 0 7 35 55 49 48 70 50 35 22 8 9 28 25 34 17 41 119 56 24 46 61 12 6 11 6 15 23 0 30 48 49 37 0 0 0 0
0 0 0 0 0 0 1 4 3 31 52 84 101 77 33 51 3 0 2 8 12 15 20 47 69 50 37 21 27 24 39 24 0 0 19 43 47 2 0 0 0 0 0
0 0 0 0 0 0 0 0 0 2 11 39 32 64 60 32 29 19 8 13 14 8 9 23 40 41 20 2 15 29 27 20 33 31 15 7 36 0 0 0 0 0 0
0 0 0 0 0 0 0 0 0 0 2 15 28 53 53 56 36 26 24 13 25 19 26 5 32 12 14 19 18 26 30 35 24 0 0 0 0 0 0 0 0 0 1
0 0 0 0 0 0 0 0 0 0 0 8 14 31 45 16 22 39 12 14 13 37 52 20 6 8 19 22 20 27 0 0 0 0 0 0 0 0 0 0 10 19 0
0 0 0 0 0 0 0 0 0 0 0 6 20 2 0 0 0 3 8 26 28 20 34 23 11 21 13 0 4 0 0 0 0 0 0 0 0 0 0 0 0 0 0
0 0 0 0 0 0 0 0 0 0 0 0 0 10 11 5 0 0 5 1 0 0 0 2 17 17 12 0 0 0 0 0 0 0 0 0 0 0 0 0 0 0 0
0 0 0 0 0 0 0 0 0 0 0 0 0 0 0 0 0 0 0 24 7 0 0 0 0 0 0 0 0 0 0 0 0 0 0 0 0 0 0 0 0 0 0
0 0 0 0 0 0 0 0 0 0 0 0 0 0 0 0 0 0 0 0 0 0 0 0 0 0 0 0 0 0 0 0 0 0 0 0 0 0 0 0 3 7 0
0 0 0 0 0 0 0 0 0 0 0 0 0 0 0 0 0 0 0 0 0 0 0 0 0 0 0 0 0 0 0 0 0 0 0 0 0 0 0 7 15 0 0
0 0 0 0 0 0 0 0 0 0 0 0 0 0 0 0 0 0 0 0 0 0 0 0 0 0 0 0 0 0 0 0 0 0 0 0 0 0 3 15 13 0 0
0 0 0 0 0 0 0 0 0 0 0 0 0 0 0 0 0 0 0 0 0 0 0 0 0 0 0 0 0 0 0 0 0 0 0 0 0 0 6 14 12 3 7
0 0 0 0 0 0 0 0 0 0 0 0 0 0 0 0 0 0 0 0 0 0 0 0 0 0 0 0 0 0 0 0 0 0 0 0 0 0 10 18 6 12 14
1 0 0 0 0 0 0 0 0 0 0 0 0 0 0 0 0 0 0 0 0 0 0 0 0 0 0 0 0 0 0 0 0 0 0 0 0 10 11 0 0 0 1
136 77 30 1 0 0 0 0 0 0 0 0 0 0 0 0 0 0 0 0 0 0 0 0 0 0 0 0 0 0 0 0 0 0 0 0 0 0 13 17 17 0 0
195 162 117 36 0 0 0 0 0 0 0 0 0 0 0 0 0 0 0 0 0 0 0 0 0 0 0 0 0 0 0 0 0 0 0 0 0 16 48 62 10 0 0
231 239 188 114 9 0 0 0 0 0 0 0 0 0 0 0 0 0 0 0 0 0 0 0 0 0 0 0 0 0 0 0 0 0 0 3 13 34 52 0 0 0 0
276 303 287 271 201 44 0 0 0 0 0 0 0 0 0 0 0 0 0 0 0 0 0 0 0 0 0 0 0 0 0 0 0 17 16 24 38 79 47 9 0 0 0
301 334 366 373 329 223 90 0 0 0 0 7 4 1 0 0 0 0 0 0 0 0 0 0 0 0 0 0 0 0 0 0 0 7 40 51 73 66 43 0 0 0 0
404 411 427 420 420 300 221 113 37 43 57 61 100 82 36 11 7 0 0 0 0 0 0 0 0 1 0 0 0 0 0 0 0 14 4 21 27 17 0 0 0 0 0
474 526 528 504 498 405 301 298 300 295 287 245 194 175 132 49 14 3 1 3 23 7 0 0 0 0 0 0 0 0 0 0 38 22 14 1 0 0 2 0 0 0 0
607 627 635 644 616 524 404 353 407 421 394 353 305 269 227 196 147 97 54 37 24 29 32 20 16 17 7 0 0 0 0 0 6 21 8 1 0 2 0 0 0 0 0

GFSGL_con_mucape_021.txt.gz
CAPE
35 77 251 321 35 74 164 256 385 397 310 269 237 417 488 65 48 185 180 70 123 103 145 303 166 189 256 278 339 245 146 48 34 43 19 11 61 46 68 46 41 32 25
17 6 285 151 7 128 260 182 359 483 375 219 167 254 22 31 11 56 36 83 61 190 282 61 118 164 129 45 75 219 117 144 56 35 11 6 34 45 10 36 43 43 20
0 90 326 141 20 91 301 376 383 469 381 235 171 168 31 45 13 27 17 10 35 69 24 103 157 133 150 55 89 170 170 116 28 14 14 39 12 26 22 44 44 28 22
0 138 280 155 21 108 304 421 491 471 417 364 332 160 92 51 42 49 40 121 89 54 119 266 231 81 188 211 70 113 80 43 29 26 46 18 15 36 29 31 24 25 21
9 139 185 124 32 105 301 315 363 451 366 316 323 204 49 100 94 39 49 25 41 45 32 14 81 112 40 23 118 113 45 29 20 10 1 6 9 7 0 25 14 4 6
47 60 50 149 1 174 272 273 406 370 305 264 252 260 109 23 1 0 3 37 36 57 36 33 14 17 15 9 16 32 24 12 0 7 0 0 0 15 28 21 4 2 4
4 19 49 52 43 197 83 117 392 471 471 392 207 197 14 0 0 0 0 4 66 27 15 12 13 33 37 12 22 26 33 17 18 14 5 6 4 21 37 29 48 38 24
0 0 102 20 41 102 15 4 157 424 386 95 66 37 13 1 0 0 0 33 40 74 49 23 22 137 14 22 15 16 27 8 17 22 27 33 120 76 106 66 51 0 0
0 0 12 83 10 29 0 0 2 53 104 26 29 41 14 16 9 3 12 19 26 60 27 46 60 108 2 3 21 3 4 0 2 0 31 60 62 0 1 1 2 16 0
0 0 0 29 35 0 1 0 0 11 34 115 39 22 27 26 10 17 12 47 10 6 25 13 6 1 2 29 69 84 40 1 0 0 0 3 0 0 0 72 34 86 0
0 0 0 39 198 99 113 0 0 0 35 78 43 18 3 28 15 26 26 50 51 9 46 22 1 31 23 0 0 93 44 0 0 0 0 0 0 0 0 0 9 0 0
0 0 0 118 55 86 100 0 0 24 30 1 1 3 8 0 2 3 9 31 19 69 61 96 22 15 4 0 0 0 0 0 0 0 1 0 0 0 0 0 0 0 0
0 0 0 117 0 0 10 0 0 0 14 0 0 0 0 0 0 0 0 0 0 49 30 9 0 0 0 0 0 0 0 0 0 0 0 0 0 0 0 0 0 0 0
0 0 0 23 10 0 0 0 0 0 0 0 0 0 0 0 0 0 0 0 0 0 0 0 0 0 0 0 0 0 0 0 0 0 0 0 0 0 0 0 0 0 8
0 0 0 0 0 0 0 0 0 0 0 0 0 0 0 0 0 0 0 0 2 1 0 0 0 0 0 0 0 0 0 0 0 0 0 0 0 0 0 0 0 0 7
0 0 0 0 0 1 0 0 0 0 0 0 0 0 0 0 0 0 0 0 0 0 0 0 0 0 0 0 0 0 0 0 0 0 0 0 0 0 0 0 0 0 2
0 0 0 0 0 0 0 0 0 0 0 0 0 0 0 0 0 0 0 0 0 0 0 0 0 0 0 0 0 0 0 0 0 0 0 0 0 0 0 0 0 0 20
0 0 0 0 0 0 0 0 0 0 0 0 0 0 0 0 0 0 0 0 0 0 0 0 0 0 0 0 0 0 0 0 0 0 0 0 0 0 0 0 0 0 23
0 0 0 0 0 0 0 0 0 0 0 0 0 0 0 0 0 0 0 0 0 0 0 0 0 0 0 0 0 0 0 0 0 0 0 0 0 0 0 0 0 0 22
0 0 0 0 0 0 0 0 0 0 0 0 0 0 0 0 0 0 0 0 0 0 0 0 0 0 0 0 0 0 0 0 0 0 0 0 0 0 0 0 0 0 21
0 0 0 0 0 0 0 0 0 0 0 0 0 0 0 0 0 0 0 0 0 0 0 0 0 0 0 0 0 0 0 0 0 0 0 0 0 0 0 0 0 6 4
5 2 0 0 0 0 0 0 0 0 0 0 0 0 0 0 0 0 0 0 0 0 0 0 0 0 0 0 0 0 0 0 0 0 0 0 0 0 0 0 0 1 0
94 85 47 11 20 40 5 0 0 0 0 0 0 0 0 0 0 0 0 0 0 0 0 0 0 0 0 0 0 0 0 0 0 0 0 0 0 0 0 0 0 3 2
142 156 116 64 87 98 61 34 0 0 0 0 0 0 0 0 0 0 0 0 0 0 0 0 0 0 0 0 0 0 0 0 0 0 0 0 0 0 0 0 0 1 0
174 198 203 204 231 181 151 112 75 32 1 0 0 0 0 0 0 0 0 0 0 1 0 0 0 0 0 0 0 0 0 0 0 0 0 0 0 0 0 0 4 0 6
184 181 167 130 167 203 225 225 228 204 140 62 13 0 0 0 0 0 0 0 0 5 5 1 0 0 0 0 0 0 0 0 0 0 0 0 0 0 0 0 0 0 0

GFSGL_con_mucape_024.txt.gz
CAPE
299 413 688 655 408 503 525 479 436 435 401 431 478 526 593 692 702 712 609 550 462 626 647 599 652 598 619 546 652 407 100 99 52 45 45 32 14 11 82 52 19 8 18
206 241 631 559 367 528 494 588 587 528 330 246 323 482 393 397 543 444 411 422 412 344 426 427 567 472 438 341 505 413 267 61 22 22 6 24 56 7 52 14 2 33 22
39 123 712 536 426 510 496 574 469 376 291 228 316 498 167 381 428 184 158 131 242 384 310 227 408 433 99 82 139 634 256 54 105 5 2 11 7 23 20 46 7 41 27
0 206 623 495 391 501 568 628 485 467 344 234 225 228 92 125 91 245 167 159 150 458 286 336 280 155 31 89 172 211 215 151 65 59 3 3 0 30 18 17 10 24 32
0 133 497 492 382 469 462 574 556 562 516 395 381 144 62 57 42 71 392 191 78 370 486 322 296 163 105 115 222 289 120 28 28 5 1 0 0 1 0 15 30 29 29
1 109 297 392 324 471 471 513 548 538 502 489 561 378 163 21 0 0 67 164 186 256 415 345 128 20 5 44 61 33 32 2 3 2 2 3 0 13 10 0 68 109 76
1 72 284 277 351 406 392 397 596 621 642 496 418 345 79 43 0 1 2 173 321 326 284 74 22 71 39 16 22 10 28 12 7 11 3 7 1 15 15 72 135 139 54
0 18 311 225 414 395 508 606 622 761 704 442 160 196 104 13 0 0 9 139 237 450 125 391 229 212 4 53 20 19 16 5 28 31 7 10 25 56 92 267 300 306 134
0 3 278 249 421 351 297 778 782 666 21 74 113 70 82 0 0 0 6 214 342 330 383 174 164 115 6 5 7 1 1 7 22 33 22 36 67 129 160 155 71 40 31
0 0 242 176 273 108 97 698 829 785 564 168 70 10 8 8 4 0 13 7 66 95 210 109 20 2 6 4 23 90 2 11 18 25 33 72 56 75 0 312 125 105 120
0 0 84 312 194 279 97 645 853 653 654 375 95 91 62 8 7 0 22 33 46 16 69 48 1 3 1 8 65 210 10 1 19 137 92 63 3 7 83 298 272 172 19
0 0 0 323 271 399 282 427 725 830 704 562 436 331 15 40 2 2 15 10 22 57 34 40 0 0 0 1 32 5 0 0 0 0 2 16 21 27 15 11 22 2 7
0 0 0 213 242 374 374 153 509 835 646 596 529 458 323 221 41 0 1 3 25 336 226 21 0 0 0 0 0 0 0 32 28 25 26 22 6 0 0 0 0 0 0
0 0 0 51 362 195 153 21 9 306 341 99 102 377 372 316 126 57 4 13 24 52 28 3 0 0 0 0 0 0 33 49 45 11 0 0 0 0 0 0 0 0 0
0 4 8 4 152 325 81 0 0 1 12 16 4 0 220 362 294 93 60 118 178 56 16 0 21 83 61 16 0 0 0 0 0 0 0 0 0 0 0 0 0 0 0
5 16 13 0 28 94 292 140 0 0 0 0 0 1 0 0 7 15 23 24 22 0 29 50 30 21 3 2 1 0 0 0 0 0 0 0 0 0 0 0 0 0 0
271 199 0 0 0 0 62 266 151 0 0 0 0 0 0 0 0 0 0 0 0 0 98 0 0 0 0 0 0 0 0 0 0 0 0 0 0 0 0 0 0 0 0
151 0 10 0 0 0 0 33 116 95 2 0 0 0 0 0 0 0 0 0 0 0 0 0 0 0 0 0 0 0 0 0 0 0 0 0 0 0 0 0 0 0 0
130 0 0 0 0 0 0 0 0 0 0 0 0 0 0 0 0 0 0 0 0 0 0 0 0 0 0 0 0 0 0 0 0 0 0 0 0 0 0 0 0 0 0
214 0 0 0 0 0 0 0 0 0 0 0 0 0 0 0 0 0 0 0 0 0 0 0 0 0 0 0 0 0 0 0 0 0 0 0 0 0 0 0 0 0 0
256 50 0 0 0 0 0 0 0 0 0 0 0 0 0 0 0 0 0 0 0 0 0 0 0 0 0 0 0 0 0 0 0 0 0 0 0 0 0 0 0 0 0
227 129 0 0 0 0 0 0 0 0 0 0 0 0 0 0 0 0 0 0 0 0 0 0 0 0 0 0 0 0 0 0 0 0 0 0 0 0 0 0 0 0 0
146 117 0 0 0 0 0 0 0 0 0 0 0 0 0 0 0 0 0 0 0 0 0 0 0 0 0 0 0 0 0 0 0 0 0 0 0 0 0 0 0 0 0
74 87 38 0 0 0 0 0 2 0 0 0 0 0 0 0 0 0 0 0 0 0 0 0 0 0 0 0 0 0 0 0 0 0 0 0 0 0 0 0 0 0 0
53 51 63 91 91 74 46 18 7 41 28 5 0 0 0 0 0 0 0 0 0 0 0 0 0 0 0 0 0 0 0 0 0 0 0 0 0 0 0 0 0 0 0
86 70 76 106 116 110 76 48 55 76 42 31 10 1 0 0 0 0 0 0 0 0 0 0 0 0 0 0 0 0 0 0 0 0 0 0 0 0 0 0 3 0 0

GFSGL_con_mucape_027.txt.gz
CAPE
346 392 1135 1024 587 959 814 613 615 271 342 383 530 579 605 693 742 939 963 633 693 434 407 347 708 284 877 600 718 540 402 492 199 71 56 22 40 30 14 2 23 13 23
271 328 1067 473 457 824 676 663 904 809 172 175 356 463 373 401 712 573 545 617 507 468 503 392 514 541 720 882 459 420 211 195 28 6 30 23 5 8 11 21 18 35 24
194 166 975 477 675 680 532 625 734 189 121 82 409 328 177 423 381 566 300 333 319 433 414 510 487 525 362 249 426 453 197 56 20 17 0 11 6 5 10 23 31 23 14
60 312 902 563 897 638 826 625 463 148 131 168 325 288 371 151 325 144 210 240 432 561 277 445 321 62 53 171 126 144 61 36 12 11 5 46 40 33 19 7 5 7 33
34 422 937 595 517 572 790 585 649 381 170 171 447 409 222 249 93 121 185 274 526 631 492 356 345 18 39 37 223 154 105 46 3 0 0 0 0 6 15 13 21 2 13
99 298 652 337 502 288 792 554 536 545 627 440 402 513 252 70 0 11 109 148 483 577 557 218 168 41 15 45 43 39 38 13 7 0 0 0 0 24 21 20 0 12 0
122 312 481 367 509 374 391 509 580 686 723 611 560 387 322 7 0 0 69 394 464 602 389 343 221 40 52 21 16 4 18 15 7 1 0 0 0 15 2 38 61 76 60
96 281 380 338 461 453 446 432 706 1251 1010 843 588 509 239 1 0 1 16 411 564 420 350 246 279 120 31 75 4 12 9 16 16 9 5 5 7 9 34 83 186 222 106
48 344 369 384 535 423 542 778 944 396 235 309 378 216 206 2 0 0 70 352 405 424 248 170 146 60 7 0 5 3 1 13 19 10 8 17 10 9 16 142 234 30 4
24 286 400 446 473 417 792 938 1089 891 403 81 152 38 11 23 0 0 43 436 380 178 152 4 2 22 1 3 2 0 3 18 16 3 12 5 10 0 43 310 274 35 22
5 158 445 581 497 435 862 1171 1076 849 565 290 124 70 53 0 2 0 2 239 373 365 69 24 4 21 19 31 4 6 2 1 6 60 98 78 111 124 87 280 284 142 235
0 59 391 568 454 390 737 981 1017 936 715 513 473 245 108 37 0 1 0 19 50 491 66 5 0 0 3 14 10 1 8 48 219 174 145 84 31 29 205 312 54 89 107
16 34 363 551 399 640 399 817 936 878 552 578 587 476 160 119 12 0 0 1 27 446 78 4 0 0 0 15 0 0 17 159 186 117 4 0 6 150 67 8 34 30 5
56 72 206 508 446 561 371 386 506 697 292 320 428 546 518 151 52 21 6 18 17 29 0 0 0 0 0 0 0 0 14 27 14 46 77 57 3 0 0 0 0 0 0
54 151 179 410 422 511 397 39 71 330 106 45 81 490 390 226 84 43 30 130 157 58 46 11 21 66 0 0 0 0 44 37 44 22 6 0 0 0 0 0 0 0 0
237 79 123 186 441 311 141 42 0 0 0 0 0 9 68 168 52 1 28 70 56 8 76 64 72 42 21 1 0 5 17 2 17 2 0 0 0 0 0 0 0 0 0
471 410 41 2 182 474 253 147 0 0 0 0 0 0 0 73 62 14 8 9 11 0 126 124 159 74 28 5 1 0 4 0 25 1 0 0 0 0 0 0 0 0 0
552 0 100 0 12 19 332 429 305 21 0 0 0 0 0 0 6 12 13 5 0 0 98 109 31 27 12 6 1 0 1 15 0 0 0 0 0 0 0 0 0 0 0
442 17 50 0 0 0 4 140 313 278 80 0 0 0 0 0 0 0 0 0 0 0 0 0 0 0 0 0 0 0 5 2 36 14 1 0 0 0 0 0 0 0 0
435 22 15 6 0 0 0 0 8 49 137 27 0 0 0 0 0 0 0 0 0 0 0 0 0 0 0 0 0 0 0 0 12 63 22 4 0 0 0 0 0 0 0
253 210 0 1 0 0 0 0 0 0 0 0 0 0 0 0 0 0 0 0 0 0 0 0 0 0 0 0 0 0 0 0 0 12 6 1 0 0 0 0 0 0 0
642 497 67 3 0 0 0 0 0 0 0 0 0 0 0 0 0 0 0 0 0 0 0 0 0 0 0 0 0 0 0 0 0 0 0 0 0 0 0 0 0 0 0
517 575 411 223 93 0 0 0 0 0 0 0 0 0 0 0 0 0 0 0 0 0 2 3 0 0 0 0 0 0 0 0 0 0 0 0 0 0 0 0 0 0 0
543 641 594 420 260 33 27 8 0 0 0 0 0 0 0 0 0 0 0 0 0 0 0 0 0 0 0 0 0 0 0 0 0 0 0 0 0 0 0 0 0 0 0
486 795 931 838 395 265 226 225 170 1 0 0 0 0 0 0 1 1 1 0 0 0 12 29 2 0 0 0 0 0 0 0 0 0 0 0 0 0 0 0 0 0 1
251 485 730 798 696 482 488 578 548 343 74 86 20 33 3 0 0 37 62 29 0 0 33 73 88 37 6 4 0 0 0 0 0 0 0 0 0 0 0 1 8 31 49

GFSGL_con_mucape_030.txt.gz
CAPE
834 1215 1207 1226 755 1195 837 974 990 718 790 541 520 901 703 591 458 548 702 337 227 150 132 101 147 107 269 234 241 185 231 161 66 51 58 42 72 71 82 42 13 6 6
620 870 1214 682 698 923 929 983 875 492 563 557 502 605 400 605 872 500 434 605 517 299 156 124 105 206 129 229 204 201 150 92 13 5 98 27 42 41 13 11 3 41 39
408 908 811 910 949 987 1014 952 855 746 377 272 281 257 483 602 519 452 422 374 393 241 164 168 110 172 230 136 138 120 85 36 9 6 3 8 22 16 11 36 43 20 19
332 840 1104 1177 796 981 997 868 897 339 289 264 480 430 469 264 170 216 231 339 384 223 146 321 147 38 49 72 94 52 39 48 34 0 29 4 1 17 11 0 0 18 8
509 822 1073 825 875 834 802 797 788 214 241 159 456 341 190 116 83 283 290 364 457 292 162 195 30 18 28 49 29 20 24 28 7 0 1 0 0 7 2 14 0 7 6
790 841 903 660 559 833 695 897 930 725 665 470 539 166 197 0 2 20 67 322 424 245 193 44 12 2 45 30 17 10 6 6 10 0 0 0 3 1 17 0 1 6 0
512 663 632 678 514 691 666 644 752 905 695 526 439 343 6 0 0 5 134 445 276 275 158 127 70 13 28 19 7 7 4 12 5 0 0 1 8 6 0 0 0 0 0
406 540 516 485 462 570 325 860 987 932 729 690 556 174 8 0 0 8 149 358 261 245 167 149 40 55 10 14 15 16 14 9 4 3 6 1 6 11 1 1 2 0 0
232 642 481 500 636 609 709 1039 1214 862 483 207 391 203 4 0 0 34 150 291 242 160 136 92 16 9 5 5 28 30 9 1 5 6 8 9 6 2 11 0 8 0 1
190 527 576 558 634 911 884 1062 1099 946 443 280 74 47 1 0 0 0 66 141 39 7 18 8 0 0 1 12 16 23 20 17 2 4 7 14 4 13 20 42 0 0 0
172 530 749 747 860 1108 1155 1033 1117 823 280 142 53 18 71 3 0 0 38 171 113 12 3 1 4 1 0 27 2 16 3 6 7 0 3 4 0 19 34 36 65 2 0
163 427 888 1109 561 1212 1273 1238 1139 886 571 282 112 53 47 6 0 0 33 66 19 34 2 0 3 1 7 12 13 7 1 1 0 18 19 0 0 12 72 33 6 20 19
175 697 912 853 676 934 1294 1104 1084 1065 592 438 369 172 102 11 0 0 14 27 21 6 0 0 7 9 0 1 6 9 9 22 14 31 14 2 14 6 2 9 8 6 3
354 820 887 811 831 665 782 1082 974 891 774 638 409 226 48 17 1 0 11 25 15 0 0 0 0 0 0 0 0 0 41 19 1 0 0 0 0 0 20 39 21 30 50
474 607 864 805 870 884 618 442 785 414 480 748 646 453 151 45 19 0 0 7 1 0 0 0 0 0 0 0 0 9 15 34 22 0 0 0 0 0 0 0 0 0 5
527 468 581 629 743 614 228 0 14 91 40 60 498 466 230 78 0 0 34 4 0 0 0 0 0 0 0 0 0 0 5 0 0 6 24 0 0 0 0 0 0 0 0
380 478 291 445 457 534 438 126 15 0 10 0 0 150 146 128 7 6 32 38 26 11 95 53 18 8 0 0 0 0 9 5 25 2 0 0 0 0 0 0 0 0 0
348 160 321 170 485 552 271 289 31 11 0 0 0 0 27 107 28 33 41 32 33 3 78 88 98 125 42 0 0 0 0 0 0 28 0 0 0 0 0 0 0 0 0
267 170 122 38 216 176 511 397 247 42 1 0 0 0 8 31 1 0 0 57 27 18 3 93 185 124 66 6 0 0 0 0 0 0 0 0 0 0 0 0 0 0 0
403 133 23 101 4 41 56 312 407 314 115 0 0 0 0 0 0 0 0 24 90 83 71 39 38 1 0 0 0 0 0 0 0 0 0 0 0 0 0 0 0 0 0
419 153 0 60 0 0 0 9 58 261 315 82 3 0 0 0 0 0 0 0 0 0 0 0 0 0 0 0 0 0 0 0 0 0 1 0 0 0 0 0 0 0 0
298 328 60 1 123 0 0 0 0 0 15 172 56 0 0 0 0 0 0 0 0 0 0 0 0 0 0 0 0 0 0 0 0 0 0 0 0 0 0 0 0 0 0
491 433 323 70 13 45 0 0 0 0 0 0 0 0 0 0 0 0 0 0 0 0 0 0 0 0 0 0 0 0 0 0 0 0 0 0 0 0 0 0 0 0 0
588 778 725 273 241 104 44 0 0 0 0 0 0 0 0 0 0 0 0 0 0 0 0 0 0 0 0 0 0 0 0 0 0 0 0 0 0 0 0 0 0 0 0
772 767 937 785 413 350 204 2 0 0 0 0 0 0 0 0 0 0 0 0 0 0 0 0 0 0 0 0 0 0 0 0 0 0 0 0 0 0 0 0 0 0 0
491 954 790 1128 800 475 335 343 68 0 0 0 0 0 0 0 0 0 0 0 0 0 0 0 0 0 0 0 0 0 0 0 0 0 0 0 0 0 0 0 0 1 6

GFSGL_con_mucape_033.txt.gz
CAPE
254 229 316 384 375 285 279 243 210 140 97 316 415 349 211 295 297 120 152 128 42 34 62 68 88 130 164 89 102 0 176 67 43 120 154 299 189 150 207 52 25 19 11
221 406 317 408 347 192 238 184 2 61 9 36 239 269 249 210 158 107 28 47 71 52 12 38 27 133 157 165 102 191 176 79 83 111 166 125 130 66 62 52 7 4 2
415 435 342 188 223 258 321 110 8 14 21 93 136 113 173 100 74 156 115 84 63 63 56 57 42 100 71 96 110 86 73 50 36 22 63 90 62 53 21 12 6 1 4
362 338 298 168 229 280 226 169 36 103 22 66 188 172 57 0 7 10 22 102 164 58 56 48 39 48 27 54 54 46 39 35 26 86 42 46 38 39 10 1 3 3 6
247 512 263 177 187 261 219 248 265 47 38 149 34 6 0 212 5 1 67 147 133 73 46 13 12 36 39 32 32 36 47 26 7 3 0 11 7 3 0 5 1 3 6
491 510 210 182 179 307 249 175 97 56 166 51 7 0 0 0 2 4 91 94 104 35 34 16 11 29 37 29 24 37 24 10 25 3 3 0 0 0 1 0 0 0 0
472 573 258 240 104 169 227 80 51 64 117 31 1 0 0 0 2 22 88 66 66 8 1 2 13 14 16 10 18 13 10 20 4 6 1 3 6 0 9 0 0 1 0
415 450 269 354 198 283 223 78 36 31 65 75 23 0 0 0 0 36 35 12 2 8 0 0 1 38 10 23 7 1 8 8 7 3 5 5 9 8 8 11 2 0 0
415 368 358 252 248 138 184 119 80 48 31 86 19 0 0 0 0 46 44 0 3 8 1 3 0 7 3 6 6 0 13 4 8 6 8 10 6 1 4 2 0 0 0
339 411 356 224 261 222 232 126 120 33 35 55 38 0 0 0 0 44 6 0 1 7 5 19 8 0 5 16 1 0 0 3 5 0 5 3 5 1 0 0 0 0 0
310 354 399 289 543 353 313 332 79 6 8 20 22 1 0 0 0 0 6 4 0 0 40 0 0 4 13 8 2 4 3 4 5 0 0 0 1 5 1 6 0 0 0
395 370 382 363 688 500 420 354 175 0 7 17 15 0 0 0 0 3 18 2 0 0 0 4 6 17 6 33 28 7 17 12 10 1 0 0 13 1 3 16 1 0 0
358 381 558 555 572 425 433 508 144 21 0 0 10 2 0 0 1 12 13 9 0 0 0 0 4 17 6 21 5 8 1 5 3 0 0 0 0 0 8 10 11 9 1
511 511 537 574 678 501 511 388 391 145 24 1 15 1 0 0 0 7 8 3 0 0 0 0 0 0 4 5 0 5 1 1 0 0 0 0 0 0 3 0 0 0 0
463 386 407 317 536 733 601 578 493 467 241 114 21 0 0 0 0 6 0 0 0 0 0 0 0 0 0 0 0 12 12 1 0 0 0 0 0 0 0 0 0 16 32
455 338 502 486 408 280 513 577 551 215 395 400 121 5 0 0 0 0 6 5 0 0 0 0 0 0 0 0 0 1 1 0 0 0 0 0 0 0 0 7 10 2 4
303 395 382 546 410 321 178 201 146 164 463 474 231 111 12 0 0 0 0 0 0 0 0 0 0 0 0 0 0 0 0 0 0 0 0 0 0 0 0 0 0 0 0
138 351 298 327 495 376 264 63 7 17 29 260 389 166 108 56 0 21 13 0 0 0 0 0 0 0 0 0 0 0 0 0 0 0 0 0 0 0 0 0 0 0 0
103 100 104 279 323 367 270 144 17 0 0 3 121 231 138 97 8 44 52 22 2 0 30 41 10 0 0 0 0 0 0 0 0 0 0 0 0 0 0 0 0 0 0
25 47 58 10 253 225 248 158 61 24 26 0 0 0 28 50 0 39 37 39 53 7 22 45 65 51 21 14 0 0 0 0 0 0 0 0 0 0 0 0 0 0 0
0 2 14 28 0 159 162 279 143 64 129 132 82 0 0 8 0 3 13 15 26 25 10 1 11 23 62 53 23 0 0 0 0 0 0 0 0 0 0 0 0 0 0
317 4 0 0 3 0 0 16 213 241 231 194 129 67 16 0 0 0 0 0 0 20 16 11 2 0 15 0 0 0 0 0 0 0 0 0 0 0 0 0 0 0 0
524 393 142 42 0 0 0 0 0 15 111 182 149 79 30 0 0 0 0 0 0 0 0 0 0 0 0 0 0 0 0 0 0 0 0 0 0 0 0 0 0 0 0
420 390 371 273 176 12 0 0 0 0 0 4 93 85 37 0 0 0 0 0 0 0 0 0 0 0 0 0 0 0 0 0 0 0 0 0 0 0 0 0 0 0 0
387 307 341 309 265 257 154 0 0 0 0 0 0 0 0 0 0 0 0 0 0 0 0 0 0 0 0 0 0 0 0 0 0 0 0 0 0 0 0 0 0 0 0
497 399 404 403 370 352 336 288 277 163 3 0 0 0 0 0 0 0 0 0 0 0 0 0 0 0 0 0 0 0 0 0 0 0 0 0 0 0 0 0 0 0 0

GFSGL_con_mucape_036.txt.gz
CAPE
166 197 162 311 278 231 89 132 66 17 32 23 260 287 115 112 190 141 78 65 26 0 17 46 56 85 56 47 48 63 55 35 34 88 258 150 63 64 85 38 69 4 3
108 141 147 186 280 96 102 32 13 28 9 197 305 184 157 110 22 2 23 14 18 9 17 31 20 67 104 97 64 52 82 47 31 79 178 146 170 37 14 7 24 43 17
85 205 190 214 174 72 85 0 1 1 7 35 141 216 107 13 102 106 52 48 37 24 22 29 88 84 89 92 12 41 52 24 44 32 101 139 88 78 62 5 8 13 4
177 140 174 123 53 63 91 0 0 8 22 47 90 77 9 0 2 8 28 83 42 23 43 32 40 45 50 51 47 81 87 40 17 14 54 51 44 33 13 10 14 5 2
187 190 108 45 78 76 77 3 9 79 21 85 46 2 0 0 0 0 70 87 38 18 26 15 27 13 42 46 51 46 40 42 26 21 83 56 18 25 23 1 2 4 3
175 226 132 84 41 56 50 71 99 39 41 52 19 0 0 0 1 17 78 133 61 38 22 16 16 24 18 26 31 25 33 21 5 23 124 24 28 7 5 0 5 0 0
301 207 97 57 47 53 50 15 21 42 39 34 0 0 0 0 5 42 71 75 48 28 7 15 20 9 11 13 21 12 17 17 17 42 11 5 5 2 7 3 0 1 0
319 216 47 27 27 64 12 0 31 65 52 4 0 0 0 0 23 62 69 36 11 8 0 2 9 28 18 12 31 19 28 26 14 6 4 10 2 1 5 4 0 8 0
333 245 81 63 37 93 28 0 5 31 43 34 2 0 0 1 71 25 3 5 0 0 0 28 81 6 14 10 6 6 19 12 2 5 3 7 9 1 2 8 7 0 0
280 204 153 106 102 138 76 12 4 11 47 51 0 0 0 1 41 46 0 3 0 12 20 0 18 1 6 2 1 4 8 6 4 19 3 11 8 5 6 14 7 0 0
220 241 209 160 115 92 45 0 12 11 40 46 7 0 0 0 15 19 2 2 0 5 5 6 3 1 15 1 7 9 2 0 4 7 11 15 14 1 2 0 0 0 0
241 275 239 171 189 185 110 12 0 6 47 48 12 0 0 0 0 7 8 6 0 0 0 1 2 0 8 0 5 7 3 1 5 15 11 13 0 0 0 0 0 0 0
255 233 234 323 314 222 184 35 0 1 13 18 11 0 0 0 1 15 5 0 0 0 14 4 10 4 0 0 8 9 10 0 0 0 0 0 0 0 3 6 0 0 0
228 254 272 369 288 251 199 167 0 0 7 0 1 0 0 0 2 16 8 0 0 0 0 5 18 25 8 13 9 9 10 5 0 0 0 0 0 0 3 4 0 23 53
239 253 249 318 242 222 362 273 50 22 57 26 0 0 0 0 2 8 2 0 0 0 0 2 6 1 0 1 0 0 4 2 0 0 0 0 0 0 0 0 0 19 21
263 284 325 374 314 223 293 298 283 283 175 227 30 0 0 0 0 5 2 0 0 0 0 0 0 0 0 0 0 0 0 0 0 0 0 0 0 0 0 20 6 0 0
266 285 371 374 403 388 372 341 484 502 435 369 276 8 0 0 0 18 15 0 0 0 0 0 0 0 5 0 7 0 0 0 0 0 0 0 0 0 0 0 0 0 0
213 278 241 227 296 409 358 378 372 185 143 341 400 55 0 0 0 19 4 0 0 0 0 0 0 0 0 0 0 1 0 0 0 0 0 0 0 0 0 0 0 0 0
172 200 232 253 256 198 171 77 77 17 294 445 403 143 53 0 0 0 0 0 0 0 0 0 0 0 0 0 0 0 0 0 0 0 0 0 0 0 0 0 0 0 0
96 123 162 235 269 260 248 190 103 17 39 429 356 253 114 22 0 1 1 0 0 0 0 0 0 0 0 0 0 0 0 0 0 0 0 0 0 0 0 0 0 0 0
23 97 134 122 168 290 259 248 175 75 18 0 34 272 160 73 0 6 29 15 0 0 0 0 0 1 0 0 0 0 0 0 0 0 0 0 0 3 17 27 17 5 0
481 187 70 22 119 146 210 210 196 132 71 13 48 82 140 72 13 0 5 17 23 6 0 0 1 30 46 51 47 31 25 19 0 0 0 0 3 0 0 0 0 0 0
493 392 108 25 2 0 11 91 186 196 178 106 61 137 150 92 21 0 0 0 5 13 18 23 11 0 14 42 41 40 49 38 36 3 0 0 0 0 0 0 0 0 0
577 466 322 236 158 106 94 26 2 34 124 145 95 123 88 89 53 14 0 0 0 0 0 0 2 1 0 0 0 5 37 19 0 1 2 1 0 0 0 0 0 0 0
630 546 393 264 181 165 184 169 198 4 0 0 72 46 10 21 50 18 2 0 0 0 0 0 0 0 0 0 0 0 0 0 0 0 0 0 0 0 0 0 0 0 0
478 432 444 386 247 183 161 185 221 250 175 46 5 0 0 0 0 0 0 0 0 0 0 0 0 0 0 0 0 0 0 0 0 0 0 0 0 0 0 0 0 0 0

GFSGL_con_mucape_042.txt.gz
CAPE
357 140 125 112 123 118 110 119 33 2 0 0 0 0 12 66 26 27 42 37 43 59 21 41 44 34 53 67 36 29 10 24 23 161 163 87 112 83 383 551 439 347 359
102 72 59 81 82 71 33 18 0 0 0 0 5 52 52 1 9 46 58 42 33 29 3 11 28 32 40 59 49 40 27 54 154 245 102 34 113 39 131 133 190 279 145
32 41 58 56 51 28 10 0 0 0 0 3 46 23 24 0 0 11 4 16 22 20 8 4 12 38 45 33 75 38 40 59 78 131 296 39 18 35 82 58 65 32 53
0 30 42 60 71 28 5 1 0 0 0 0 13 46 5 0 0 9 23 20 17 20 37 27 32 41 55 64 52 58 56 34 27 118 32 53 28 31 29 18 8 28 18
0 10 30 60 71 44 13 0 0 0 0 4 9 8 0 0 0 0 6 46 24 25 26 30 36 28 37 39 22 32 37 19 37 7 139 24 16 4 12 16 3 4 2
6 47 41 67 48 5 1 0 0 1 13 15 6 0 0 0 0 0 34 76 50 44 25 36 22 23 26 24 31 18 24 16 73 4 3 2 0 0 0 2 3 0 0
19 25 46 51 28 23 0 0 2 26 28 22 4 0 0 0 0 2 41 47 24 29 23 7 25 29 37 22 13 13 0 0 15 8 1 3 12 0 0 0 0 0 0
34 15 28 40 32 3 0 0 13 35 33 17 0 0 0 0 0 45 22 6 2 6 11 24 26 8 19 31 41 30 14 3 11 23 12 29 9 0 3 2 1 1 5
58 39 40 24 16 0 0 0 2 20 24 13 0 0 0 11 20 32 2 0 0 1 7 20 20 19 27 24 3 7 2 0 1 0 5 27 16 13 11 6 1 0 0
68 57 30 24 28 13 0 0 0 14 23 0 0 0 0 27 0 0 3 31 1 5 11 7 17 18 40 6 19 2 13 7 0 0 3 25 8 32 10 4 9 2 0
78 48 20 40 29 4 0 0 8 35 27 13 0 0 0 19 26 5 9 5 0 7 3 15 17 11 3 13 4 19 21 5 7 7 25 11 6 2 9 8 28 26 3
105 69 25 49 56 54 1 0 4 30 31 18 0 0 0 4 22 3 13 4 0 3 18 7 14 5 0 2 14 9 7 7 11 6 11 3 2 6 0 5 4 1 0
95 92 48 123 125 106 54 7 18 37 38 26 15 1 0 1 3 8 24 10 0 49 34 16 6 0 0 0 0 12 9 5 9 6 4 4 4 0 1 0 0 0 0
95 87 99 159 128 147 29 15 34 47 46 30 11 0 0 1 14 8 15 0 0 3 9 7 0 0 13 3 0 0 1 4 0 1 0 6 0 0 0 0 0 0 0
74 110 124 180 100 188 25 0 28 26 24 5 8 0 0 3 3 1 5 1 0 6 20 0 0 0 0 0 0 0 8 3 0 0 1 1 1 0 0 0 0 0 0
40 117 164 209 183 181 69 9 30 35 28 6 0 0 0 0 0 0 4 0 1 18 15 4 1 0 0 0 0 0 0 0 0 0 0 0 0 0 0 0 0 0 0
8 98 200 229 236 187 108 73 84 4 55 103 9 2 0 0 2 8 2 0 0 4 18 16 30 0 0 0 0 0 0 0 0 0 0 0 0 0 0 0 0 0 0
0 64 185 230 232 207 115 113 100 15 10 74 95 47 0 0 2 3 3 0 0 0 7 16 19 4 0 0 0 0 0 0 0 0 0 0 0 0 0 0 0 0 0
0 34 154 241 217 233 137 99 90 58 131 102 73 119 5 0 1 6 3 0 0 0 0 0 2 0 1 0 2 0 0 0 0 0 0 0 0 0 0 0 0 0 0
0 27 109 210 200 251 188 101 84 134 203 15 75 133 0 0 0 0 0 0 0 0 0 0 0 0 0 0 0 2 1 1 0 0 0 0 0 0 0 0 0 0 0
0 12 69 156 177 233 227 191 93 82 145 4 55 172 14 0 0 0 0 0 0 0 0 0 0 0 0 0 0 0 3 1 0 0 0 0 0 0 0 0 0 0 0
0 1 29 75 135 212 236 194 164 39 18 8 1 103 182 42 1 0 0 0 0 0 0 0 0 0 0 0 0 0 0 0 0 0 0 0 0 0 0 0 0 0 0
207 32 8 31 68 126 171 166 152 100 84 82 45 15 40 153 115 33 0 0 0 0 0 0 0 0 0 0 0 0 0 0 0 0 0 0 0 0 0 0 0 0 0
506 331 151 14 18 44 86 133 142 101 64 82 120 115 67 46 34 57 60 94 77 16 0 0 0 0 0 0 0 0 0 0 0 0 0 0 0 0 0 0 0 0 0
443 374 308 272 97 25 0 16 41 80 83 50 47 68 109 111 83 65 56 19 7 7 7 9 0 0 0 0 0 0 0 0 0 0 0 0 0 0 0 0 3 16 26
344 257 284 342 389 224 95 43 42 82 83 66 42 4 0 0 0 3 5 7 13 13 12 9 0 0 0 0 0 0 0 0 0 0 0 0 0 0 0 1 7 16 15

GFSGL_con_mucape_045.txt.gz
CAPE
862 507 442 463 518 610 663 585 612 612 592 531 411 334 452 615 787 854 727 577 547 214 27 366 439 411 481 588 106 401 412 741 116 415 196 135 16 183 406 530 651 668 503
427 447 476 459 472 575 533 485 360 277 194 188 250 359 491 606 718 681 653 483 379 24 10 15 44 225 561 126 114 506 316 748 529 89 20 19 73 369 399 436 479 390 387
359 410 451 419 457 478 422 298 149 208 202 305 486 550 477 546 498 498 352 336 208 42 12 29 27 154 360 75 301 275 521 896 410 26 8 11 87 90 74 363 297 131 163
285 318 376 366 361 378 374 248 257 205 337 572 558 525 464 340 319 380 368 258 67 15 25 13 23 124 134 24 163 444 685 807 92 34 37 27 30 109 75 62 49 74 21
142 177 346 358 315 301 317 235 263 240 282 425 537 467 300 138 15 98 212 64 27 29 35 47 52 175 124 254 385 400 612 116 24 61 8 49 77 33 11 7 15 20 29
93 152 254 262 252 384 296 244 265 148 360 476 396 190 69 0 0 0 34 451 171 42 36 43 20 32 18 31 68 121 293 105 41 9 42 8 2 9 11 5 0 10 2
158 181 209 274 271 314 193 154 361 586 620 411 203 28 2 0 0 0 37 156 180 37 31 6 20 7 17 25 8 27 30 20 49 27 31 9 6 0 19 3 2 0 0
154 164 206 227 237 246 111 177 498 611 461 303 113 21 5 0 15 43 28 107 46 114 12 24 24 20 7 12 6 8 22 7 14 38 30 41 20 0 0 1 1 1 1
151 142 189 244 284 224 198 423 541 347 269 154 61 3 107 1 55 39 4 19 43 57 20 18 26 7 38 30 32 1 3 4 0 2 5 18 8 3 0 0 1 1 0
193 211 245 237 346 363 369 334 359 366 180 70 21 15 0 9 16 4 0 82 72 0 21 16 17 3 15 8 26 16 1 0 0 0 15 13 8 1 3 2 1 1 1
291 292 297 342 475 477 342 316 295 194 115 85 12 15 6 8 9 22 8 21 21 2 8 19 12 28 7 15 9 9 4 0 0 0 0 8 8 4 2 1 9 5 2
306 310 292 500 326 284 330 354 324 213 64 44 24 3 18 16 34 14 12 1 1 63 57 25 16 11 15 6 3 11 12 0 0 0 10 2 12 2 0 5 6 3 0
386 376 383 507 505 431 378 382 364 237 176 41 3 3 4 18 99 8 8 0 1 35 12 20 8 0 0 23 3 9 1 7 9 7 7 0 2 0 0 0 3 0 0
524 454 480 654 599 501 413 296 142 176 134 25 15 12 0 18 8 7 6 0 0 20 22 6 0 0 0 3 6 4 1 3 2 2 0 0 0 0 0 1 0 0 0
563 528 608 615 649 562 363 176 235 148 101 18 45 3 0 3 37 1 1 4 0 11 21 0 0 0 0 0 10 8 3 1 1 0 1 1 1 0 1 0 0 0 0
565 611 625 618 627 365 12 3 17 14 0 0 0 7 3 1 1 0 0 0 2 5 0 0 3 0 0 0 0 0 4 7 5 0 3 0 0 14 0 0 0 0 0
519 689 586 587 695 494 254 284 153 70 7 2 0 0 0 0 2 0 0 2 17 10 1 0 0 0 0 0 2 3 0 12 26 33 28 28 25 15 6 2 0 0 0
624 313 707 717 753 636 480 445 394 340 300 76 8 2 0 0 4 5 0 0 7 11 1 12 0 0 27 4 0 13 36 19 10 19 24 13 10 9 5 1 0 0 2
451 392 585 748 769 533 505 409 381 364 404 268 83 3 0 0 6 2 1 6 0 0 3 6 7 0 19 32 19 12 13 15 12 10 14 11 7 0 0 2 4 0 0
285 197 412 721 673 610 555 372 367 391 411 51 38 47 0 0 0 3 1 9 13 15 12 9 0 1 3 9 11 7 6 3 6 10 8 6 3 0 0 0 0 1 0
171 214 257 613 668 639 618 507 296 313 365 157 360 43 0 0 2 0 0 6 8 6 7 9 8 14 13 0 0 0 0 8 3 5 8 5 3 2 1 1 3 3 8
117 143 213 403 538 566 603 595 497 258 248 244 278 64 13 2 30 4 2 1 8 28 2 1 1 1 1 2 4 4 5 5 1 1 9 16 11 4 4 11 25 26 26
148 126 148 292 402 264 294 504 476 401 215 155 188 4 78 39 140 80 59 35 27 74 66 35 19 2 0 1 1 0 1 6 11 11 71 80 85 93 70 50 30 19 26
138 127 119 201 246 297 373 471 427 181 262 179 95 71 10 14 205 258 217 143 92 71 91 87 77 85 64 19 0 0 0 0 2 15 22 31 47 11 8 14 15 3 0
115 95 79 52 49 119 158 237 264 249 151 123 76 31 56 93 103 101 120 150 142 114 79 77 85 62 71 53 33 4 0 0 0 0 0 0 0 0 0 0 0 0 0
93 126 129 63 58 48 23 15 21 16 26 48 71 63 52 35 16 14 16 27 44 47 43 45 37 27 36 54 39 0 0 0 0 0 0 0 0 0 0 0 0 0 9

GFSGL_con_mucape_048.txt.gz
CAPE
1909 1803 1742 1479 1271 1261 1291 1388 1523 1485 1386 1185 1060 926 784 724 632 694 622 610 740 783 358 85 611 718 1075 922 958 850 702 638 487 686 496 180 243 314 561 565 569 724 675
1660 1446 1228 1181 1225 1363 1292 1273 1271 1123 836 684 547 472 460 384 704 834 752 482 640 693 69 48 193 547 556 853 435 262 984 1063 529 387 46 74 3 336 607 311 590 671 570
1038 1068 1146 1167 1176 1199 1109 965 682 520 404 340 348 392 416 519 656 748 628 542 557 430 48 32 54 139 586 630 127 1070 1024 1171 599 72 1 10 57 289 384 354 402 459 401
919 971 1014 962 837 755 745 571 470 418 371 427 470 477 574 583 526 505 455 459 212 68 26 10 18 53 471 357 942 726 1055 992 469 69 4 59 28 149 113 279 124 252 202
647 550 439 475 596 722 608 558 557 359 377 453 578 574 612 531 238 443 402 538 417 7 39 32 54 81 121 167 444 966 1037 578 164 25 9 29 53 1 64 115 33 50 55
127 104 370 523 624 759 712 644 446 438 560 552 567 580 605 3 0 0 5 613 233 23 40 83 88 42 87 58 138 424 518 384 173 11 34 5 21 137 22 0 5 21 1
32 252 470 560 623 667 585 464 391 600 718 642 595 556 365 269 0 0 10 525 411 39 22 50 2 46 69 259 95 266 121 50 89 211 53 57 63 1 21 17 0 0 0
96 312 417 467 450 479 497 500 541 651 606 684 659 462 390 0 0 0 23 325 294 166 28 40 20 10 32 160 319 342 247 241 235 188 24 31 50 0 28 18 14 10 3
221 339 348 334 455 340 416 503 622 596 738 788 567 408 438 7 9 0 98 273 251 167 34 16 12 5 29 18 188 192 190 53 19 38 21 0 1 17 16 0 11 0 1
225 304 326 271 451 337 493 583 603 689 752 558 424 338 4 2 0 0 16 93 195 68 9 6 15 27 8 19 145 80 19 0 2 2 2 3 0 0 3 15 10 5 0
300 343 380 360 572 627 674 622 652 436 592 554 411 78 13 74 3 3 1 121 91 9 8 6 14 9 6 24 29 68 13 1 1 2 0 3 0 0 0 0 1 3 8
391 396 485 783 601 683 776 652 615 712 761 577 352 20 43 2 2 5 2 4 1 12 2 12 17 3 8 4 11 18 14 7 2 0 0 2 8 3 0 1 2 4 56
465 475 682 756 705 735 729 705 721 622 661 590 192 123 9 51 1 3 4 0 0 9 17 13 15 6 0 4 4 0 15 10 0 0 0 0 3 0 2 1 0 42 2
620 693 795 813 771 780 638 663 593 748 642 237 127 84 43 4 15 17 5 0 2 5 7 5 1 10 11 2 4 5 0 3 1 1 0 0 2 0 0 0 0 49 25
752 812 765 860 895 826 645 364 471 709 446 326 305 110 88 31 14 17 22 5 1 13 5 0 0 4 16 0 2 10 4 9 15 9 0 0 0 0 0 16 51 7 0
846 849 773 754 844 744 613 345 54 49 13 1 19 64 17 4 0 0 0 0 0 13 5 0 0 0 14 5 6 12 16 13 14 1 2 0 0 20 22 9 13 4 0
656 680 542 378 451 576 548 603 349 0 0 0 0 0 0 0 0 0 0 0 4 0 4 0 0 3 2 10 17 12 5 5 5 49 27 31 28 16 8 17 17 10 2
630 462 574 438 358 340 556 743 794 521 338 54 0 0 0 0 1 0 0 8 11 5 9 10 34 25 0 0 3 27 47 51 80 72 65 69 42 20 24 30 5 0 0
639 579 413 489 497 174 231 410 427 721 692 380 0 0 0 0 1 0 0 17 4 8 5 2 45 30 23 23 32 56 68 48 44 44 55 64 48 58 54 17 4 0 0
356 175 338 510 786 581 169 237 365 693 722 604 160 10 0 3 0 0 1 24 16 10 3 10 14 53 45 49 49 18 36 28 44 55 57 54 47 43 37 12 11 9 0
203 479 384 489 597 538 350 75 245 338 510 412 537 28 0 48 10 8 18 17 18 24 4 6 19 31 39 12 14 11 10 10 53 33 74 86 102 53 20 10 9 6 5
132 303 315 350 426 442 461 349 168 97 183 243 571 0 0 21 160 61 42 88 114 101 85 96 88 47 39 28 24 18 15 56 83 30 103 112 70 40 17 8 23 75 103
158 233 200 209 312 238 598 577 404 202 108 110 299 51 0 171 187 190 201 239 275 366 273 153 110 67 53 53 99 133 101 82 89 98 94 167 199 194 158 140 148 172 195
380 283 274 368 387 529 645 723 692 298 169 190 236 217 268 343 399 397 470 477 392 345 337 374 367 294 182 127 146 97 67 107 162 189 203 249 334 300 284 321 320 289 270
640 657 540 576 571 626 709 803 778 791 570 340 393 446 477 502 576 610 705 713 696 627 573 528 525 406 302 279 249 186 60 0 14 1 108 190 191 202 223 231 187 148 114
54 14 46 81 245 375 459 498 456 533 606 596 517 467 380 346 254 258 221 238 338 455 444 451 426 330 309 325 277 141 118 62 22 6 9 57 94 130 123 118 73 50 26